(138584) = 2000 QC139 = 2004 GQ3

Discovered at Socorro on 2000-08-31 by LINEAR.

Orbit

Orbit type: Main Belt

Note: WebGL enabled browser required.

epoch2024-03-31.0
epoch JD2460400.5
perihelion date2022-10-14.53320
perihelion JD2459867.03320
argument of perihelion (°)326.65130
ascending node (°)0.06089
inclination (°)4.68079
eccentricity0.1872547
perihelion distance (AU)2.5601604
Tisserand w.r.t. Jupiter3.2
ΔV w.r.t. Earth (km/sec)10.1
semimajor axis (AU)3.1500157
mean anomaly (°)94.04640
mean daily motion (°/day)0.17629290
aphelion distance (AU)3.740
period (years)5.59
P-vector [x]0.83592223
P-vector [y]-0.48402868
P-vector [z]-0.25874749
Q-vector [x]0.54884790
Q-vector [y]0.73727385
Q-vector [z]0.39394574
absolute magnitude14.89
phase slope0.15
uncertainty0
referenceMPEC 2024-F74
observations used896
oppositions19
arc length (days)11709
first opposition used1992
last opposition used2024
residual rms (arc-secs)0.65
perturbers coarse indicatorM-v
perturbers precise indicator003Ek
first observation date used1992-02-29.0
last observation date used2024-03-21.0
computer nameMPCLINUX
JD of orbit computation2456731.528663
perihelion JD uncertainty (days)7.1285E-05
argument of perihelion uncertainty (°)5.1190E-05
ascending node uncertainty (°)4.9792E-05
inclination uncertainty (°)5.0429E-06
eccentricity uncertainty 4.0950E-08
perihelion distance uncertainty (AU)1.3316E-07
Minimum Orbit Intersection Distances (in AU)
for orbit epoch: 2460400.5, reference: E2024-GB3
Mercury2.14684
Venus1.83217
Earth1.55019
Mars1.17675
Jupiter1.6113
Saturn5.4534
Uranus14.719
Neptune26.5555

Observations

917 total observations over interval: 1992 02 29.22675 – 2024 03 21.119898
These data are available for download (format description).

Date (UT) J2000 RA J2000 Dec Magn Location Ref
1992 02 29.22675 10 46 43.59 +10 23 50.0   691 – Steward Observatory, Kitt Peak-Spacewatch MPS 106680
1992 02 29.24732 10 46 42.65 +10 23 53.7   691 – Steward Observatory, Kitt Peak-Spacewatch MPS 106680
1992 02 29.27505 10 46 41.39 +10 24 00.4 21.1 V 691 – Steward Observatory, Kitt Peak-Spacewatch MPS 106680
2000 08 31.31324 00 41 12.23 +04 07 08.5 18.8   704 – Lincoln Laboratory ETS, New Mexico MPS 18294
2000 08 31.32640 00 41 11.75 +04 07 07.1 19.2   704 – Lincoln Laboratory ETS, New Mexico MPS 18294
2000 08 31.33958 00 41 11.36 +04 07 06.3 18.7   704 – Lincoln Laboratory ETS, New Mexico MPS 18294
2000 08 31.35273 00 41 10.94 +04 07 05.8 19.0   704 – Lincoln Laboratory ETS, New Mexico MPS 18294
2000 08 31.36590 00 41 10.60 +04 07 04.8 18.8   704 – Lincoln Laboratory ETS, New Mexico MPS 18294
2000 09 02.32890 00 40 11.00 +04 04 20.3 18.3   704 – Lincoln Laboratory ETS, New Mexico MPS 18294
2000 09 02.34223 00 40 10.55 +04 04 19.5 18.2   704 – Lincoln Laboratory ETS, New Mexico MPS 18294
2000 09 02.35545 00 40 10.13 +04 04 17.9 17.9   704 – Lincoln Laboratory ETS, New Mexico MPS 18294
2000 09 02.36854 00 40 09.74 +04 04 16.8 18.2   704 – Lincoln Laboratory ETS, New Mexico MPS 18294
2000 09 02.38166 00 40 09.27 +04 04 16.1 18.5   704 – Lincoln Laboratory ETS, New Mexico MPS 18294
2000 09 02.39488 00 40 08.81 +04 04 14.4 18.2 R 699 – Lowell Observatory-LONEOS MPS 18294
2000 09 02.41418 00 40 08.17 +04 04 12.8   699 – Lowell Observatory-LONEOS MPS 18294
2000 09 02.43349 00 40 07.53 +04 04 10.7   699 – Lowell Observatory-LONEOS MPS 18294
2000 09 02.45278 00 40 06.89 +04 04 09.7   699 – Lowell Observatory-LONEOS MPS 18294
2000 09 24.28855 00 25 00.96 +03 09 29.8 18.0 R 699 – Lowell Observatory-LONEOS MPS 30078
2000 09 24.31175 00 24 59.79 +03 09 25.3   699 – Lowell Observatory-LONEOS MPS 30078
2000 09 24.33423 00 24 58.68 +03 09 21.2 18.7   704 – Lincoln Laboratory ETS, New Mexico MPS 19394
2000 09 24.33497 00 24 58.67 +03 09 21.2   699 – Lowell Observatory-LONEOS MPS 30078
2000 09 24.34911 00 24 57.95 +03 09 17.8 18.5   704 – Lincoln Laboratory ETS, New Mexico MPS 19394
2000 09 24.35820 00 24 57.47 +03 09 16.3   699 – Lowell Observatory-LONEOS MPS 30078
2000 09 24.36435 00 24 57.16 +03 09 14.6 18.4   704 – Lincoln Laboratory ETS, New Mexico MPS 19394
2000 09 24.36723 00 24 57.05 +03 09 14.3 18.6 V 691 – Steward Observatory, Kitt Peak-Spacewatch MPS 19394
2000 09 24.37931 00 24 56.43 +03 09 11.6 18.5   704 – Lincoln Laboratory ETS, New Mexico MPS 19394
2000 09 24.38800 00 24 56.03 +03 09 10.2 18.5 V 691 – Steward Observatory, Kitt Peak-Spacewatch MPS 19394
2000 09 24.39430 00 24 55.67 +03 09 08.8 18.5   704 – Lincoln Laboratory ETS, New Mexico MPS 19394
2000 09 24.40894 00 24 55.00 +03 09 06.3 18.5 V 691 – Steward Observatory, Kitt Peak-Spacewatch MPS 19394
2000 09 26.26291 00 23 26.50 +03 03 11.1 18.1   704 – Lincoln Laboratory ETS, New Mexico MPS 19394
2000 09 26.27801 00 23 25.73 +03 03 07.5 18.7   704 – Lincoln Laboratory ETS, New Mexico MPS 19394
2000 09 26.29421 00 23 24.90 +03 03 05.4 18.4   704 – Lincoln Laboratory ETS, New Mexico MPS 19394
2000 09 26.31005 00 23 24.17 +03 03 01.5 18.4   704 – Lincoln Laboratory ETS, New Mexico MPS 19394
2000 09 26.32495 00 23 23.41 +03 02 58.9 18.0   704 – Lincoln Laboratory ETS, New Mexico MPS 19394
2000 09 26.41143 00 23 19.34 +03 02 44.1 18.5   608 – Haleakala-AMOS MPS 19394
2000 09 26.42325 00 23 18.76 +03 02 41.7 18.9   608 – Haleakala-AMOS MPS 19394
2000 09 26.43348 00 23 18.24 +03 02 39.7 18.5   608 – Haleakala-AMOS MPS 19394
2000 10 01.19429 00 19 30.49 +02 47 14.4 16.0   704 – Lincoln Laboratory ETS, New Mexico MPS 19394
2000 10 01.20936 00 19 29.76 +02 47 11.6 15.8   704 – Lincoln Laboratory ETS, New Mexico MPS 19394
2000 10 01.22444 00 19 28.98 +02 47 09.0 15.7   704 – Lincoln Laboratory ETS, New Mexico MPS 19395
2000 10 01.31325 00 19 24.74 +02 46 51.0 17.9 R 699 – Lowell Observatory-LONEOS MPS 21020
2000 10 01.33320 00 19 23.77 +02 46 47.3   699 – Lowell Observatory-LONEOS MPS 21020
2000 10 01.35319 00 19 22.83 +02 46 42.9   699 – Lowell Observatory-LONEOS MPS 21020
2000 10 01.37323 00 19 21.79 +02 46 39.5   699 – Lowell Observatory-LONEOS MPS 21020
2000 10 02.30127 00 18 37.84 +02 43 39.2 19.0   704 – Lincoln Laboratory ETS, New Mexico MPS 19395
2000 10 02.31685 00 18 37.03 +02 43 37.7 19.1   704 – Lincoln Laboratory ETS, New Mexico MPS 19395
2000 10 02.33301 00 18 36.28 +02 43 33.7 18.8   704 – Lincoln Laboratory ETS, New Mexico MPS 19395
2000 10 02.34852 00 18 35.46 +02 43 30.5 19.1   704 – Lincoln Laboratory ETS, New Mexico MPS 19395
2000 10 02.36413 00 18 34.66 +02 43 26.9 19.6   704 – Lincoln Laboratory ETS, New Mexico MPS 19395
2003 02 21.24150 09 51 41.85 +16 48 11.8 20.7   644 – Palomar Mountain/NEAT MPS 106680
2003 02 21.26391 09 51 40.75 +16 48 15.6 20.8   644 – Palomar Mountain/NEAT MPS 106680
2003 02 21.28512 09 51 39.78 +16 48 20.2 20.8   644 – Palomar Mountain/NEAT MPS 106680
2004 03 23.40486 13 29 25.12 -11 29 33.3 20.7 V 691 – Steward Observatory, Kitt Peak-Spacewatch MPS 123987
2004 03 23.43299 13 29 23.98 -11 29 29.2 19.9 V 691 – Steward Observatory, Kitt Peak-Spacewatch MPS 123987
2004 03 23.46228 13 29 22.81 -11 29 24.7 20.4 V 691 – Steward Observatory, Kitt Peak-Spacewatch MPS 123987
2004 04 10.26369 13 16 24.13 -10 34 43.9 18.6 R 703 – Catalina Sky Survey MPS 104426
2004 04 10.27151 13 16 23.77 -10 34 43.3 19.7 R 703 – Catalina Sky Survey MPS 104426
2004 04 10.27844 13 16 23.39 -10 34 41.4 19.1 R 703 – Catalina Sky Survey MPS 104426
2004 04 10.28547 13 16 23.14 -10 34 39.9 19.3 R 703 – Catalina Sky Survey MPS 104426
2004 04 13.31231 13 14 02.29 -10 23 51.1 19.6 V 691 – Steward Observatory, Kitt Peak-Spacewatch MPS 104426
2004 04 13.34099 13 14 00.92 -10 23 44.9 19.6 V 691 – Steward Observatory, Kitt Peak-Spacewatch MPS 104426
2004 04 13.36996 13 13 59.54 -10 23 38.5 19.6 V 691 – Steward Observatory, Kitt Peak-Spacewatch MPS 104426
2004 04 15.30682 13 12 29.76 -10 16 37.3 19.3 R 699 – Lowell Observatory-LONEOS MPS 105193
2004 04 15.32622 13 12 28.81 -10 16 33.4   699 – Lowell Observatory-LONEOS MPS 105193
2004 04 15.34565 13 12 27.92 -10 16 28.3   699 – Lowell Observatory-LONEOS MPS 105193
2004 04 15.36504 13 12 26.98 -10 16 24.2   699 – Lowell Observatory-LONEOS MPS 105193
2004 04 17.24573 13 11 00.49 -10 09 33.2 19.5   704 – Lincoln Laboratory ETS, New Mexico MPS 105193
2004 04 17.25638 13 11 00.06 -10 09 29.9 19.6   704 – Lincoln Laboratory ETS, New Mexico MPS 105193
2004 04 17.26691 13 10 59.57 -10 09 28.4 19.6   704 – Lincoln Laboratory ETS, New Mexico MPS 105193
2004 04 17.27782 13 10 58.99 -10 09 25.3 19.4   704 – Lincoln Laboratory ETS, New Mexico MPS 105193
2004 04 19.24508 13 09 29.30 -10 02 14.0 19.2   704 – Lincoln Laboratory ETS, New Mexico MPS 105193
2004 04 19.25610 13 09 28.81 -10 02 11.6 20.1   704 – Lincoln Laboratory ETS, New Mexico MPS 105193
2004 04 19.26861 13 09 28.20 -10 02 08.7 20.0   704 – Lincoln Laboratory ETS, New Mexico MPS 105193
2004 04 19.27946 13 09 27.70 -10 02 06.1 19.7   704 – Lincoln Laboratory ETS, New Mexico MPS 105193
2004 04 19.29048 13 09 27.22 -10 02 03.7 19.8   704 – Lincoln Laboratory ETS, New Mexico MPS 105193
2004 04 20.24171 13 08 44.36 -09 58 35.8 20.0 V 691 – Steward Observatory, Kitt Peak-Spacewatch MPS 105193
2004 04 20.25717 13 08 43.59 -09 58 32.4 19.5   704 – Lincoln Laboratory ETS, New Mexico MPS 105193
2004 04 20.26840 13 08 43.07 -09 58 31.1 19.9   704 – Lincoln Laboratory ETS, New Mexico MPS 105193
2004 04 20.26942 13 08 43.09 -09 58 29.8 20.0 V 691 – Steward Observatory, Kitt Peak-Spacewatch MPS 105194
2004 04 20.27948 13 08 42.66 -09 58 27.6 19.6   704 – Lincoln Laboratory ETS, New Mexico MPS 105194
2004 04 20.29058 13 08 42.13 -09 58 25.3 19.1   704 – Lincoln Laboratory ETS, New Mexico MPS 105194
2004 04 20.29651 13 08 41.83 -09 58 23.9 19.9 V 691 – Steward Observatory, Kitt Peak-Spacewatch MPS 105194
2005 07 03.30376 19 26 33.15 -29 14 50.9 18.1   644 – Palomar Mountain/NEAT MPS 137371
2005 07 03.32692 19 26 31.90 -29 14 53.7 18.0   644 – Palomar Mountain/NEAT MPS 137371
2005 07 03.35268 19 26 30.53 -29 14 56.7 18.0   644 – Palomar Mountain/NEAT MPS 137371
